User: anonymous   Login
Location: Düngen
(52.0952°N, 10.0219°E)
Time: 12:12:24
(UTC+00:00)
Language:

Cosmos 2227 Rocket - Orbit

View from above orbital plane
View from above orbital plane
View from above satellite
View from above satellite

Ground track
Ground track

The orbit is defined by the following mean orbital elements,

1 22285U          26138.20791568 +.00000000 +00000-0 -44527-4 0 00007
2 22285  71.0214 218.3257 0005564 223.0086 137.0603 14.15458073    03
Epoch (UTC): 18 May 2026 04:59:23
Eccentricity: 0.0005564
inclination: 71.0214°
perigee height: 837 km
apogee height: 845 km
right ascension of ascending node: 218.3257°
argument of perigee: 223.0086°
revolutions per day: 14.15458073
mean anomaly at epoch: 137.0603°

The dashed part of the orbit path shows where the satellite is in the earth's shadow,  

DLR